Luxor, Egypt

3:52 AM EET on May 28, 2017 (GMT +0200)
Luxor

Weather History for HELX - December, 2012

Change the Weather History Date:

Wednesday, December 26, 2012

  Actual Average Record
Temperature  
Mean Temperature 60 °F -  
Max Temperature 74 °F 70 °F 79 °F (2013)
Min Temperature 46 °F 44 °F 39 °F (2005)
Degree Days  
Heating Degree Days 5    
Growing Degree Days 10 (Base 50)    
Moisture  
Dew Point 48 °F    
Average Humidity 64    
Maximum Humidity 87    
Minimum Humidity 40    
Precipitation  
Precipitation 0.00 in 0.00 in - ()
Sea Level Pressure  
Sea Level Pressure 30.17 in    
Wind  
Wind Speed 2 mph ()    
Max Wind Speed 4 mph    
Max Gust Speed -    
Visibility 6.0 miles    
Events      
Averages and records for this station are not official NWS values.
T = Trace of Precipitation, MM = Missing Value Source: Averaged Metar Reports

Daily Weather History Graph

Daily Weather History Graph

Search for Another Location

Airport or City:

Trip Planner

Search our weather history database for the weather conditions in past years. The results will help you decide how hot, cold, wet, or windy it might be!

Date:

Astronomy

Dec. 26, 2012 Rise Set
Actual Time 6:33 AM EET 5:06 PM EET
Civil Twilight 6:08 AM EET 5:31 PM EET
Nautical Twilight 5:39 AM EET 6:00 PM EET
Astronomical Twilight 5:11 AM EET 6:28 PM EET
Moon 3:41 PM EET (12/26) 4:43 AM EET (12/26)
Length of Visible Light 11h 23m
Length of Day
10h 32m
Waxing Gibbous, 96% of the Moon is Illuminated
Dec 26
Waxing Gibbous
Dec 28
Full
Jan 5
Last Quarter
Jan 11
New
Jan 19
First Quarter

Hourly Weather History & Observations

Time (EET) Temp. Dew Point Humidity Pressure Visibility Wind Dir Wind Speed Gust Speed Precip Events Conditions
12:00 AM 59.0 °F 50.0 °F 72% 30.15 in - North 3.5 mph - N/A   Clear
1:00 AM 55.4 °F 48.2 °F 77% 30.15 in - SSE 2.3 mph - N/A   Clear
2:00 AM 52 °F 46 °F 73% 30.17 in 6 mi South 2.3 mph - -  
2:00 AM 51.8 °F 46.4 °F 82% 30.15 in - South 2.3 mph - N/A   Clear
3:00 AM 50.0 °F 44.6 °F 82% 30.15 in - Calm Calm - N/A   Clear
4:00 AM 50.0 °F 44.6 °F 82% 30.15 in - SE 1.2 mph - N/A   Clear
5:00 AM 50.0 °F 44.6 °F 82% 30.15 in - Calm Calm - N/A   Clear
6:00 AM 46.4 °F 42.8 °F 87% 30.18 in - SW 2.3 mph - N/A   Clear
7:00 AM 46.4 °F 42.8 °F 87% 30.18 in - WNW 2.3 mph - N/A   Clear
8:00 AM 54 °F 46 °F 65% 30.22 in 6 mi Calm Calm - -  
8:00 AM 53.6 °F 46.4 °F 77% 30.21 in - Calm Calm - N/A   Clear
9:00 AM 57.2 °F 46.4 °F 67% 30.24 in - Calm Calm - N/A   Clear
10:00 AM 60.8 °F 48.2 °F 63% 30.24 in - Calm Calm - N/A   Clear
11:00 AM 66.2 °F 51.8 °F 60% 30.21 in - Calm Calm - N/A   Clear
12:00 PM 68.0 °F 51.8 °F 56% 30.18 in - Calm Calm - N/A   Clear
1:00 PM 69.8 °F 51.8 °F 53% 30.15 in - ENE 2.3 mph - N/A   Clear
2:00 PM 72 °F 53 °F 40% 30.16 in 6 mi North 3.5 mph - -  
2:00 PM 71.6 °F 53.6 °F 53% 30.15 in - North 3.5 mph - N/A   Clear
3:00 PM 73.4 °F 51.8 °F 47% 30.12 in - NNE 2.3 mph - N/A   Clear
4:00 PM 73.4 °F 50.0 °F 44% 30.12 in - NNW 3.5 mph - N/A   Clear
5:00 PM 69.8 °F 50.0 °F 49% 30.12 in - WNW 2.3 mph - N/A   Clear
6:00 PM 64.4 °F 48.2 °F 56% 30.12 in - WNW 2.3 mph - N/A   Clear
7:00 PM 64.4 °F 48.2 °F 56% 30.15 in - Calm Calm - N/A   Clear
8:00 PM 61 °F 46 °F 46% 30.16 in 6 mi SE 2.3 mph - -  
8:00 PM 60.8 °F 46.4 °F 59% 30.15 in - SE 2.3 mph - N/A   Clear
9:00 PM 59.0 °F 44.6 °F 59% 30.15 in - SE 2.3 mph - N/A   Clear
10:00 PM 60.8 °F 46.4 °F 59% 30.18 in - ESE 2.3 mph - N/A   Clear
11:00 PM 57.2 °F 44.6 °F 63% 30.18 in - Calm Calm - N/A   Clear